Погода в Дружбе

Россия / Республика Дагестан     42°14′28″N   47°59′50″E
темп.,
°C
ветер,
м/с
пор.,
м/с
влажн.,
%
обл.,
%
осадки,
мм/ч
давл.,
гПа
погр.,
м
31 июля, сб
сб3100:00+22юз22490 0.0 101023
03:00+22юз11490 0.0 101019
06:00+24юз11460 0.0 101050
09:00+29в33354 0.0 1010809
12:00+31в65330 0.0 10091242
15:00+30в5438100 0.0 10081044
18:00+27в2255100 0.0 1009495
21:00+24ююз227363 0.6 101076
1 августа, вс
вс100:00+22юз227930 2.1 101027
03:00+22юз227618 3.1 101026
06:00+24зюз22661 0.0 101143
09:00+30в22440 0.0 1011618
12:00+32в55420 0.0 10101148
15:00+32в553581 0.1 10101063
18:00+29вюв3342100 0.3 1010266
21:00+26ю1154100 0.3 101048
2 августа, пн
пн200:00+25ююз1258100 0.0 101032
03:00+24юз225753 0.0 101013
06:00+25юз225056 0.0 101144
09:00+31вюв233096 0.0 1011365
12:00+33юв2521100 0.0 1010835
15:00+35в461937 0.0 10091305
18:00+31в232970 0.0 1010135
21:00+26зюз223392 0.0 101014
3 августа, вт
вт300:00+25юз222987 0.0 101021
03:00+24зюз22287 0.0 101023
06:00+26з222863 0.0 101129
09:00+32св221814 0.0 1011641
12:00+35в55155 0.0 10101353
15:00+34в44166 0.0 10091010
18:00+31в222441 0.0 1010227
21:00+27юз22310 0.0 101014
4 августа, ср
ср400:00+26зюз22350 0.0 101016
03:00+25юз22390 0.0 101019
06:00+27зюз22370 0.0 101139
09:00+35св32220 0.0 1011776
12:00+36св53200 0.0 10101261
15:00+35в432212 0.0 1010973
18:00+33вюв232529 0.0 1010228
21:00+27зюз344837 0.4 101159